Previsão horária em Aalsmeer

Hoje, 21 Outubro, Quarta-feira

Tempo Temperatura Precipitação Vento Pressão Humidade
00:00 +13°C° 0.1 mm 5 m/s 754 mmHg 93%
01:00 +14°C° 0.2 mm 5 m/s 753 mmHg 93%
02:00 +14°C° 0.2 mm 5 m/s 753 mmHg 94%
03:00 +14°C° 0.2 mm 5 m/s 752 mmHg 94%
04:00 +13°C° 1.2 mm 5 m/s 752 mmHg 94%
05:00 +13°C° 1.2 mm 5 m/s 751 mmHg 94%
06:00 +13°C° 1.2 mm 5 m/s 751 mmHg 95%
07:00 +13°C° 1.9 mm 6 m/s 750 mmHg 92%
08:00 +12°C° 1.9 mm 7 m/s 750 mmHg 89%
09:00 +12°C° 1.9 mm 8 m/s 750 mmHg 86%
10:00 +15°C° 0.1 mm 8 m/s 749 mmHg 80%
11:00 +17°C° 0.1 mm 9 m/s 748 mmHg 75%
12:00 +18°C° 0.1 mm 9 m/s 748 mmHg 69%
13:00 +18°C° 0.1 mm 10 m/s 748 mmHg 71%
14:00 +17°C° 0.1 mm 10 m/s 748 mmHg 73%
15:00 +17°C° 0.1 mm 10 m/s 748 mmHg 75%
16:00 +17°C° 0 mm 10 m/s 750 mmHg 76%
17:00 +16°C° 0 mm 10 m/s 751 mmHg 77%
18:00 +16°C° 0 mm 10 m/s 752 mmHg 78%
19:00 +15°C° 0 mm 8 m/s 753 mmHg 81%
20:00 +15°C° 0 mm 7 m/s 753 mmHg 84%
21:00 +14°C° 0 mm 5 m/s 754 mmHg 86%
22:00 +14°C° 0 mm 6 m/s 754 mmHg 86%
23:00 +14°C° 0 mm 6 m/s 754 mmHg 85%

Amanhã, 22 Outubro, Quinta-feira

Tempo Temperatura Precipitação Vento Pressão Humidade
00:00 +14°C° 0 mm 7 m/s 755 mmHg 85%
01:00 +14°C° 0 mm 7 m/s 755 mmHg 86%
02:00 +14°C° 0 mm 7 m/s 755 mmHg 86%
03:00 +14°C° 0 mm 7 m/s 755 mmHg 87%
04:00 +13°C° 0 mm 6 m/s 755 mmHg 87%
05:00 +13°C° 0 mm 6 m/s 756 mmHg 87%
06:00 +13°C° 0 mm 6 m/s 756 mmHg 87%
07:00 +13°C° 0 mm 6 m/s 756 mmHg 84%
08:00 +14°C° 0 mm 6 m/s 756 mmHg 80%
09:00 +15°C° 0 mm 6 m/s 757 mmHg 77%
10:00 +15°C° 0 mm 6 m/s 757 mmHg 74%
11:00 +16°C° 0 mm 6 m/s 757 mmHg 71%
12:00 +16°C° 0 mm 6 m/s 757 mmHg 68%
13:00 +16°C° 0 mm 6 m/s 757 mmHg 70%
14:00 +15°C° 0 mm 5 m/s 757 mmHg 72%
15:00 +15°C° 0 mm 5 m/s 756 mmHg 75%
16:00 +14°C° 0 mm 5 m/s 756 mmHg 77%
17:00 +14°C° 0 mm 5 m/s 757 mmHg 79%
18:00 +13°C° 0 mm 5 m/s 757 mmHg 81%
19:00 +13°C° 0 mm 5 m/s 757 mmHg 83%
20:00 +13°C° 0 mm 5 m/s 757 mmHg 85%
21:00 +12°C° 0 mm 5 m/s 758 mmHg 87%
22:00 +12°C° 0 mm 5 m/s 758 mmHg 88%
23:00 +12°C° 0 mm 5 m/s 758 mmHg 89%

Depois de amanhã, 23 Outubro, Sexta-feira

Tempo Temperatura Precipitação Vento Pressão Humidade
00:00 +12°C° 0 mm 5 m/s 758 mmHg 89%
01:00 +12°C° 0 mm 5 m/s 758 mmHg 90%
02:00 +10°C° 0 mm 5 m/s 758 mmHg 90%
03:00 +10°C° 0 mm 5 m/s 758 mmHg 91%
04:00 +10°C° 0 mm 5 m/s 758 mmHg 91%
05:00 +11°C° 0 mm 4 m/s 758 mmHg 92%
06:00 +11°C° 0 mm 4 m/s 758 mmHg 92%
07:00 +12°C° 0 mm 4 m/s 758 mmHg 89%
08:00 +12°C° 0 mm 4 m/s 758 mmHg 86%
09:00 +13°C° 0 mm 4 m/s 758 mmHg 83%
10:00 +14°C° 0.1 mm 4 m/s 758 mmHg 81%
11:00 +14°C° 0.1 mm 5 m/s 757 mmHg 79%
12:00 +15°C° 0.1 mm 5 m/s 757 mmHg 77%
13:00 +15°C° 0 mm 5 m/s 757 mmHg 75%
14:00 +15°C° 0 mm 5 m/s 756 mmHg 73%
15:00 +15°C° 0 mm 6 m/s 756 mmHg 70%
16:00 +14°C° 0.1 mm 6 m/s 756 mmHg 72%
17:00 +14°C° 0.1 mm 7 m/s 756 mmHg 75%
18:00 +12°C° 0.1 mm 8 m/s 756 mmHg 77%
19:00 +12°C° 0.8 mm 7 m/s 756 mmHg 80%
20:00 +11°C° 0.8 mm 7 m/s 757 mmHg 84%
21:00 +10°C° 0.8 mm 6 m/s 757 mmHg 88%
22:00 +10°C° 0.7 mm 6 m/s 758 mmHg 83%
23:00 +10°C° 0.7 mm 6 m/s 758 mmHg 77%

24 Outubro, Sábado

Tempo Temperatura Precipitação Vento Pressão Humidade
00:00 +9°C° 0.7 mm 6 m/s 759 mmHg 72%
01:00 +9°C° 0 mm 6 m/s 759 mmHg 73%
02:00 +8°C° 0 mm 5 m/s 760 mmHg 73%
03:00 +8°C° 0 mm 5 m/s 760 mmHg 74%
04:00 +8°C° 0 mm 5 m/s 761 mmHg 75%
05:00 +7°C° 0 mm 4 m/s 761 mmHg 76%
06:00 +7°C° 0 mm 4 m/s 761 mmHg 77%
07:00 +8°C° 0 mm 5 m/s 761 mmHg 75%
08:00 +9°C° 0 mm 5 m/s 762 mmHg 72%
09:00 +10°C° 0 mm 6 m/s 762 mmHg 70%
10:00 +10°C° 0 mm 6 m/s 762 mmHg 67%
11:00 +11°C° 0 mm 6 m/s 761 mmHg 64%
12:00 +13°C° 0 mm 6 m/s 761 mmHg 62%
13:00 +13°C° 0 mm 6 m/s 761 mmHg 64%
14:00 +13°C° 0 mm 6 m/s 760 mmHg 66%
15:00 +13°C° 0 mm 6 m/s 760 mmHg 68%
16:00 +12°C° 0 mm 5 m/s 759 mmHg 70%
17:00 +12°C° 0 mm 5 m/s 759 mmHg 73%
18:00 +10°C° 0 mm 5 m/s 759 mmHg 75%
19:00 +11°C° 0 mm 6 m/s 758 mmHg 75%
20:00 +13°C° 0 mm 6 m/s 758 mmHg 75%
21:00 +14°C° 0 mm 7 m/s 758 mmHg 75%
22:00 +12°C° 0 mm 7 m/s 757 mmHg 78%
23:00 +12°C° 0 mm 7 m/s 757 mmHg 80%

25 Outubro, Domingo

Tempo Temperatura Precipitação Vento Pressão Humidade
00:00 +12°C° 0 mm 7 m/s 756 mmHg 82%
01:00 +12°C° 0 mm 7 m/s 756 mmHg 82%
02:00 +12°C° 0 mm 7 m/s 755 mmHg 81%
03:00 +11°C° 0 mm 7 m/s 755 mmHg 81%
04:00 +11°C° 0 mm 7 m/s 755 mmHg 80%
05:00 +11°C° 0 mm 7 m/s 754 mmHg 80%
06:00 +11°C° 0 mm 7 m/s 754 mmHg 79%
07:00 +12°C° 0 mm 7 m/s 754 mmHg 77%
08:00 +12°C° 0 mm 7 m/s 753 mmHg 75%
09:00 +12°C° 0 mm 7 m/s 753 mmHg 72%
10:00 +12°C° 0.1 mm 7 m/s 753 mmHg 72%
11:00 +14°C° 0.1 mm 7 m/s 752 mmHg 71%
12:00 +14°C° 0.1 mm 7 m/s 752 mmHg 71%
13:00 +14°C° 0.2 mm 7 m/s 752 mmHg 73%
14:00 +12°C° 0.2 mm 7 m/s 752 mmHg 74%
15:00 +12°C° 0.2 mm 7 m/s 752 mmHg 76%
16:00 +12°C° 0.4 mm 7 m/s 752 mmHg 77%
17:00 +11°C° 0.4 mm 6 m/s 752 mmHg 78%
18:00 +11°C° 0.4 mm 6 m/s 753 mmHg 79%
19:00 +10°C° 0.1 mm 6 m/s 753 mmHg 80%
20:00 +10°C° 0.1 mm 6 m/s 753 mmHg 80%
21:00 +10°C° 0.1 mm 6 m/s 754 mmHg 81%
22:00 +9°C° 0.1 mm 6 m/s 754 mmHg 82%
23:00 +9°C° 0.1 mm 6 m/s 754 mmHg 82%

26 Outubro, Segunda-feira

Tempo Temperatura Precipitação Vento Pressão Humidade
00:00 +9°C° 0.1 mm 6 m/s 754 mmHg 83%
01:00 +9°C° 0 mm 5 m/s 754 mmHg 84%
02:00 +8°C° 0 mm 5 m/s 754 mmHg 86%
03:00 +8°C° 0 mm 4 m/s 754 mmHg 87%
04:00 +8°C° 0.1 mm 4 m/s 755 mmHg 88%
05:00 +7°C° 0.1 mm 4 m/s 755 mmHg 89%
06:00 +7°C° 0.1 mm 4 m/s 755 mmHg 90%
07:00 +8°C° 0.1 mm 4 m/s 756 mmHg 87%
08:00 +8°C° 0.1 mm 4 m/s 756 mmHg 85%
09:00 +10°C° 0.1 mm 4 m/s 756 mmHg 82%
10:00 +11°C° 0 mm 4 m/s 756 mmHg 78%
11:00 +12°C° 0 mm 4 m/s 756 mmHg 74%
12:00 +12°C° 0 mm 4 m/s 756 mmHg 70%
13:00 +12°C° 0 mm 3 m/s 757 mmHg 70%
14:00 +12°C° 0 mm 3 m/s 757 mmHg 70%
15:00 +12°C° 0 mm 3 m/s 757 mmHg 70%
16:00 +11°C° 0 mm 3 m/s 757 mmHg 74%
17:00 +10°C° 0 mm 3 m/s 758 mmHg 77%
18:00 +9°C° 0 mm 3 m/s 758 mmHg 81%
19:00 +9°C° 0 mm 3 m/s 758 mmHg 83%
20:00 +8°C° 0 mm 3 m/s 759 mmHg 85%
21:00 +8°C° 0 mm 2 m/s 759 mmHg 88%
22:00 +8°C° 0 mm 3 m/s 759 mmHg 88%
23:00 +8°C° 0 mm 3 m/s 759 mmHg 89%

27 Outubro, Terça-feira

Tempo Temperatura Precipitação Vento Pressão Humidade
00:00 +7°C° 0 mm 4 m/s 759 mmHg 89%
01:00 +7°C° 0 mm 4 m/s 759 mmHg 88%
02:00 +7°C° 0 mm 5 m/s 759 mmHg 86%
03:00 +7°C° 0 mm 5 m/s 759 mmHg 84%
04:00 +7°C° 0 mm 6 m/s 759 mmHg 85%
05:00 +7°C° 0 mm 6 m/s 759 mmHg 86%
06:00 +6°C° 0 mm 7 m/s 759 mmHg 86%
07:00 +8°C° 0 mm 7 m/s 758 mmHg 81%
08:00 +7°C° 0 mm 8 m/s 758 mmHg 77%
09:00 +8°C° 0 mm 9 m/s 758 mmHg 72%
10:00 +8°C° 0.2 mm 10 m/s 757 mmHg 74%
11:00 +8°C° 0.2 mm 10 m/s 757 mmHg 75%
12:00 +8°C° 0.2 mm 10 m/s 756 mmHg 76%
13:00 +8°C° 0.5 mm 10 m/s 756 mmHg 79%
14:00 +9°C° 0.5 mm 11 m/s 755 mmHg 81%
15:00 +9°C° 0.5 mm 11 m/s 755 mmHg 84%
16:00 +9°C° 0 mm 11 m/s 755 mmHg 85%
17:00 +9°C° 0 mm 10 m/s 755 mmHg 85%
18:00 +9°C° 0 mm 10 m/s 755 mmHg 86%
19:00 +11°C° 0 mm 10 m/s 755 mmHg 85%
20:00 +12°C° 0 mm 10 m/s 755 mmHg 84%
21:00 +12°C° 0 mm 10 m/s 754 mmHg 83%
22:00 +12°C° 0 mm 10 m/s 755 mmHg 83%
23:00 +13°C° 0 mm 10 m/s 755 mmHg 84%
Mostrar mais